{"data":{"norad_id":57530,"epoch":"2026-09-20T22:13:54.335712Z","epoch_age_seconds":90786,"freshness":"FRESH","line1":"1 57530U 23115K   26263.92632333  .00011947  00000+0  44287-3 0  9991","line2":"2 57530  43.0016 338.7265 0001920 267.3150  92.7482 15.27586398172215","mean_motion":15.27586398,"eccentricity":0.000192,"inclination_deg":43.0016,"raan_deg":338.7265,"arg_perigee_deg":267.315,"mean_anomaly_deg":92.7482,"bstar":0.00044287,"rev_number":17221,"period_min":94.266353895618,"perigee_km":481.71259414072,"apogee_km":484.34728224498,"semimajor_km":6861.1669381929,"source":"CELESTRAK","updated_at":"2026-09-21T09:00:33.638680Z"}}